Flag for Germany Weather past 2 weeks in Lutherstadt Eisleben, Saxony-Anhalt, Germany

Now
25 °F

Passing clouds.


Feels Like: 20 °F
Forecast: 19 / 27 °F
Wind: 3 mph from Southeast

Location: Leipzig-Schkeuditz

Current Time: Dec 27, 2014 at 8:20:26 AM

Latest Report: Dec 27, 2014 at 8:00 AM


Visibility: 28 mi

Pressure: 29.92 "Hg

Humidity: 89%

Dew point: 22 °F

Location of Lutherstadt EislebenLocation

Historic Weather in Lutherstadt Eisleben — Graph

°F

Lutherstadt Eisleben temperature yesterday

Maximum temperature yesterday: 33 °F (at 2:00 AM)
Minimum temperature yesterday: 25 °F (at 11:00 PM)
Average temperature yesterday: 31 °F

Past Weeks' High & Low Weather Summary

 TemperatureHumidityPressure
High54 °F (Dec 19, 12:00 AM)100% (Dec 15, 5:00 AM)30.36 "Hg (Dec 15, 5:00 AM)
Low25 °F (Dec 27, 2:00 AM)63% (Dec 15, 1:00 PM)29.47 "Hg (Dec 12, 7:00 PM)
Average42 °F84%29.96 "Hg
* Reported Dec 12 7:00 AM — Dec 27 7:00 AM, Lutherstadt Eisleben, Weather by CustomWeather, © 2014

Note: Actual official high and low records may vary slightly from our data, if they occured in-between our weather recording intervals... More about our weather records

Advertising

Lutherstadt Eisleben weather history for previous 24 hours

 ConditionsComfort  
Time TempWeatherWind HumidityBarometerVisibility
7:00 AM
Dec 27
25 °FPassing clouds.3 mph92%29.95 "Hg31 mi
6:00 AM25 °FPassing clouds.6 mph93%30.01 "Hg31 mi
5:00 AM25 °FClear.5 mph94%30.05 "Hg31 mi
3:00 AM25 °FPassing clouds.5 mph96%30.13 "Hg31 mi
2:00 AM25 °FClear.3 mph95%30.16 "Hg31 mi
1:00 AM26 °FPassing clouds.3 mph96%30.19 "Hg31 mi
12:00 AM25 °FPassing clouds.3 mph91%30.22 "Hg31 mi
11:00 PM
Dec 26
25 °FPassing clouds.3 mph89%30.25 "Hg31 mi
9:00 PM28 °FPassing clouds.3 mph88%30.29 "Hg31 mi
8:00 PM28 °FPassing clouds.2 mph86%30.32 "Hg31 mi
7:00 PM30 °FOvercast.1 mph83%30.32 "Hg37 mi
6:00 PM30 °FOvercast.1 mph83%30.34 "Hg31 mi
5:00 PM30 °FOvercast.1 mph80%30.35 "Hg43 mi
3:00 PM32 °FScattered clouds.3 mph72%30.35 "Hg37 mi
2:00 PM33 °FScattered clouds.5 mph67%30.35 "Hg43 mi
1:00 PM32 °FScattered clouds.3 mph75%30.35 "Hg37 mi
12:00 PM33 °FPartly sunny.5 mph75%30.36 "Hg37 mi
11:00 AM32 °FScattered clouds.3 mph83%30.36 "Hg25 mi
9:00 AM32 °FOvercast.3 mph93%30.35 "Hg25 mi
8:00 AM32 °FSnow flurries. Overcast.3 mph91%30.34 "Hg19 mi
Weather by CustomWeather, © 2014

See weather overviewHow to use our weather pages